Location: Lugrin
(46.4033°N, 6.6674°E)
Time: 11:26:25
(UTC+00:00)

Cosmos 1634 Rocket - Pass Details

Date: 18 September 2020
Orbit: 961 x 991 km, 82.9° (Epoch: 25 October)

Event Time Altitude Azimuth Distance (km) Brightness Sun altitude
Exits shadow 19:34:24 36° 123° (ESE) 1,485 4.4 -20.2°
Maximum altitude 19:35:55 42° 89° (E) 1,349 4.3 -20.4°
Drops below altitude 10° 19:41:41 10° 21° (NNE) 2,714 6.4 -21.3°
Sets 19:44:19 0° 15° (NNE) 3,668 7.2 -21.7°
